TimeIST,TemperatureF,Dew PointF,Humidity,Sea Level PressureIn,VisibilityMPH,Wind Direction,Wind SpeedMPH,Gust SpeedMPH,PrecipitationIn,Events,Conditions,WindDirDegrees,DateUTC
12:00 AM,41.0,41.0,100,30.21,-9999.0,NNW,5.8,-,N/A,Fog,Fog,340,2013-12-31 18:30:00
12:30 AM,42.8,42.8,100,30.21,-9999.0,Variable,1.2,-,N/A,Fog,Fog,0,2013-12-31 19:00:00
1:00 AM,41.0,41.0,100,30.21,-9999.0,Variable,1.2,-,N/A,Fog,Fog,0,2013-12-31 19:30:00
2:00 AM,-9999,-9999,N/A,30.21,-9999.0,Calm,Calm,-,N/A,Fog,Fog,0,2013-12-31 20:30:00
2:30 AM,40,40,100,30.24,0,Calm,Calm,,,Fog,Heavy Fog,,2013-12-31 21:00:00
2:30 AM,41.0,41.0,100,30.21,-9999.0,Calm,Calm,-,N/A,Fog,Fog,0,2013-12-31 21:00:00
3:00 AM,41.0,41.0,100,30.21,-9999.0,Calm,Calm,-,N/A,Fog,Fog,0,2013-12-31 21:30:00
3:30 AM,-9999,-9999,N/A,30.18,-9999.0,Calm,Calm,-,N/A,Fog,Fog,0,2013-12-31 22:00:00
4:00 AM,37.4,37.4,100,30.18,-9999.0,Calm,Calm,-,N/A,Fog,Fog,0,2013-12-31 22:30:00
4:30 AM,35.6,35.6,100,30.18,-9999.0,Calm,Calm,-,N/A,Fog,Fog,0,2013-12-31 23:00:00
5:00 AM,35.6,35.6,100,30.18,-9999.0,Calm,Calm,-,N/A,Fog,Fog,0,2013-12-31 23:30:00
5:30 AM,36,36,100,30.23,0,Calm,Calm,,,Fog,Heavy Fog,,2014-01-01 00:00:00
5:30 AM,35.6,35.6,100,30.18,-9999.0,Calm,Calm,-,N/A,Fog,Fog,0,2014-01-01 00:00:00
6:00 AM,35.6,35.6,100,30.18,-9999.0,Calm,Calm,-,N/A,Fog,Fog,0,2014-01-01 00:30:00
6:30 AM,33.8,33.8,100,30.18,-9999.0,Calm,Calm,-,N/A,Fog,Fog,0,2014-01-01 01:00:00
7:00 AM,33.8,33.8,100,30.18,0.1,Calm,Calm,-,N/A,Fog,Fog,0,2014-01-01 01:30:00
7:30 AM,35.6,35.6,100,30.21,0.6,Calm,Calm,-,N/A,,Scattered Clouds,0,2014-01-01 02:00:00
8:00 AM,35.6,35.6,100,30.21,0.7,Calm,Calm,-,N/A,,Mist,0,2014-01-01 02:30:00
8:30 AM,37,37,98,30.27,1,Calm,Calm,,,,Mist,,2014-01-01 03:00:00
8:30 AM,37.4,37.4,100,30.21,0.7,Calm,Calm,-,N/A,,Mist,0,2014-01-01 03:00:00
9:00 AM,37.4,37.4,100,30.24,0.7,Calm,Calm,-,N/A,,Mist,0,2014-01-01 03:30:00
9:30 AM,41.0,41.0,100,30.24,0.7,Calm,Calm,-,N/A,,Mist,0,2014-01-01 04:00:00
10:00 AM,42.8,41.0,93,30.24,0.9,WNW,5.8,-,N/A,,Mist,300,2014-01-01 04:30:00
10:30 AM,44.6,44.6,100,30.27,1.2,WNW,10.4,-,N/A,,Mist,300,2014-01-01 05:00:00
11:00 AM,46.4,46.4,100,30.27,1.6,Variable,6.9,-,N/A,,Mist,0,2014-01-01 05:30:00
11:30 AM,49,49,100,30.28,1,NW,8.1,,,,Mist,320,2014-01-01 06:00:00
11:30 AM,48.2,48.2,100,30.24,1.9,NW,8.1,-,N/A,,Mist,320,2014-01-01 06:00:00
12:00 PM,51.8,51.8,100,30.24,2.5,NW,4.6,-,N/A,,Mist,310,2014-01-01 06:30:00
12:30 PM,53.6,53.6,100,30.24,2.8,NW,4.6,-,N/A,,Mist,320,2014-01-01 07:00:00
1:00 PM,55.4,55.4,100,30.21,2.8,WNW,6.9,-,N/A,,Mist,300,2014-01-01 07:30:00
1:30 PM,57.2,55.4,94,30.21,2.8,WNW,5.8,-,N/A,,Mist,300,2014-01-01 08:00:00
2:00 PM,57.2,53.6,88,30.18,2.8,WNW,6.9,-,N/A,,Mist,290,2014-01-01 08:30:00
2:30 PM,58,52,75,30.19,2,NW,5.8,,,,Mist,320,2014-01-01 09:00:00
2:30 PM,59.0,51.8,77,30.18,2.8,NW,5.8,-,N/A,,Mist,320,2014-01-01 09:00:00
3:00 PM,59.0,50.0,72,30.18,3.1,WNW,6.9,-,N/A,,Haze,300,2014-01-01 09:30:00
3:30 PM,59.0,50.0,72,30.18,3.1,WNW,6.9,-,N/A,,Haze,300,2014-01-01 10:00:00
4:00 PM,59.0,50.0,72,30.18,3.1,WNW,6.9,-,N/A,,Haze,300,2014-01-01 10:30:00
4:30 PM,59.0,50.0,72,30.15,3.1,West,4.6,-,N/A,,Haze,280,2014-01-01 11:00:00
5:00 PM,57.2,50.0,77,30.15,3.1,Variable,1.2,-,N/A,,Haze,0,2014-01-01 11:30:00
5:30 PM,54,47,70,30.17,2,,2.3,,,,Mist,,2014-01-01 12:00:00
6:00 PM,51.8,46.4,82,30.15,3.1,Calm,Calm,-,N/A,,Mist,0,2014-01-01 12:30:00
6:30 PM,50.0,46.4,87,30.15,3.1,Variable,1.2,-,N/A,,Mist,0,2014-01-01 13:00:00
7:00 PM,48.2,42.8,82,30.18,2.5,Calm,Calm,-,N/A,,Mist,0,2014-01-01 13:30:00
7:30 PM,46.4,42.8,87,30.18,2.5,Variable,1.2,-,N/A,,Mist,0,2014-01-01 14:00:00
8:00 PM,46.4,42.8,87,30.18,-9999.0,Calm,Calm,-,N/A,,Mist,0,2014-01-01 14:30:00
8:30 PM,44,41,87,30.21,1,Calm,Calm,,,,Mist,,2014-01-01 15:00:00
9:00 PM,42.8,41.0,93,30.18,1.9,Calm,Calm,-,N/A,,Mist,0,2014-01-01 15:30:00
10:00 PM,41.0,39.2,93,30.18,1.6,Calm,Calm,-,N/A,,Mist,0,2014-01-01 16:30:00
10:30 PM,42.8,41.0,93,30.18,1.6,Calm,Calm,-,N/A,,Mist,0,2014-01-01 17:00:00
11:00 PM,42.8,41.0,93,30.18,1.2,Calm,Calm,-,N/A,,Mist,0,2014-01-01 17:30:00
11:30 PM,41,41,98,30.20,1,West,2.3,,,,Mist,270,2014-01-01 18:00:00
11:30 PM,41.0,41.0,100,30.15,1.2,Variable,2.3,-,N/A,,Mist,0,2014-01-01 18:00:00